Home > Weather > Ajmer > Past weeks

Flag for India Weather for the Past 2 Weeks in Ajmer, Rajasthan, India

Now
68 °F

Haze.


Feels Like: 68 °F
Forecast: 51 / 74 °F
Wind: 8 mph from Northwest

Location: Jaipur / Sanganer

Current Time: Feb 13, 2016 at 11:19:47 AM

Latest Report: Feb 13, 2016 at 10:00 AM


Visibility: 1 mi

Pressure: 30.01 "Hg

Humidity: 33%

Dew point: 37 °F

Location of AjmerLocation

Historic Weather in Ajmer — Graph

°F

Ajmer Temperature Yesterday

Maximum temperature yesterday: 79 °F (at 4:00 PM)
Minimum temperature yesterday: 61 °F (at 7:00 AM)
Average temperature yesterday: 69 °F

High & Low Weather Summary for the Past Weeks

 TemperatureHumidityPressure
High82 °F (Jan 30, 4:00 PM)94% (Jan 30, 6:00 AM)30.18 "Hg (Jan 30, 6:00 AM)
Low48 °F (Feb 3, 6:00 AM)11% (Feb 11, 3:00 PM)29.80 "Hg (Feb 4, 9:00 PM)
Average66 °F43%30.01 "Hg
* Reported Jan 29 9:30 AM — Feb 13 10:00 AM, Ajmer, Weather by CustomWeather, © 2016

Note: Actual official high and low records may vary slightly from our data, if they occured in-between our weather recording intervals... More about our weather records

Advertising

Ajmer Weather History for the Previous 24 Hours

 ConditionsComfort  
Time TempWeatherWind HumidityBarometerVisibility
10:00 AM
Sat, Feb 13
68 °FHaze.8 mph33%30.01 "Hg1 mi
9:00 AM66 °FHaze.1 mph49%29.98 "Hg1 mi
8:00 AM59 °FFog.No wind72%29.95 "Hg1 mi
7:00 AM57 °FFog.No wind82%29.92 "Hg1 mi
6:00 AM59 °FFog.No wind82%29.92 "Hg1 mi
5:00 AM61 °FClear.No wind77%29.89 "Hg1 mi
3:00 AM61 °FHaze.No wind72%29.89 "Hg1 mi
11:00 PM
Fri, Feb 12
66 °FHaze.6 mph52%29.92 "Hg1 mi
10:00 PM66 °FHaze.2 mph43%29.92 "Hg1 mi
9:00 PM68 °FHaze.No wind43%29.89 "Hg1 mi
8:00 PM68 °FHaze.1 mph40%29.89 "Hg1 mi
7:00 PM73 °FHaze.2 mph31%29.86 "Hg2 mi
6:00 PM75 °FHaze.6 mph29%29.86 "Hg3 mi
5:00 PM79 °FHaze.6 mph24%29.86 "Hg3 mi
4:00 PM79 °FHaze.8 mph24%29.86 "Hg3 mi
3:00 PM77 °FScattered clouds.9 mph24%29.86 "Hg3 mi
2:00 PM77 °FScattered clouds.8 mph30%29.89 "Hg2 mi
1:00 PM75 °FHaze.9 mph36%29.92 "Hg2 mi
12:30 PM75 °FHaze.10 mph39%29.95 "Hg2 mi
Weather by CustomWeather, © 2016

See weather overviewHow to use our weather pages